Change the Weather History Date:

Thursday, May 23, 2013

  Actual Average Record
Temperature  
Mean Temperature 68 °F 56 °F  
Max Temperature 76 °F 68 °F 88 °F (1975)
Min Temperature 59 °F 44 °F 28 °F (1990)
Cooling Degree Days 3 0  
Month to date cooling degree days 3 0  
Year to date cooling degree days 3 1  
Growing Degree Days 16 (Base 50)    
Moisture  
Dew Point 60 °F    
Average Humidity 79    
Maximum Humidity 100    
Minimum Humidity 57    
Precipitation  
Precipitation 0.62 in 0.11 in 0.62 in (2013)
Month to date precipitation 1.95 2.43  
Year to date precipitation 7.03 11.97  
Sea Level Pressure  
Sea Level Pressure 29.82 in    
Wind  
Wind Speed 8 mph (South)    
Max Wind Speed 18 mph    
Max Gust Speed 26 mph    
Visibility 8 miles    
Events Rain , Thunderstorm    
T = Trace of Precipitation, MM = Missing Value Source: NWS Daily Summary

Daily Weather History Graph

Daily Weather History Graph

Search for Another Location

Airport or City:

Trip Planner

Search our weather history database for the weather conditions in past years. The results will help you decide how hot, cold, wet, or windy it might be!

Date:

Astronomy

May. 23, 2013 Rise Set
Actual Time 5:15 AM EDT 8:18 PM EDT
Civil Twilight 4:41 AM EDT 8:53 PM EDT
Nautical Twilight 3:56 AM EDT 9:38 PM EDT
Astronomical Twilight 3:03 AM EDT 10:31 PM EDT
Moon 6:45 PM EDT (5/23) 4:02 AM EDT (5/23)
Length of Visible Light 16h 12m
Length of Day
15h 03m
Waxing Gibbous, 97% of the Moon is Illuminated
May 23
Waxing Gibbous
May 25
Full
May 31
Last Quarter
Jun 8
New
Jun 16
First Quarter

Hourly Weather History & Observations

Time (EDT) Temp. Dew Point Humidity Pressure Visibility Wind Dir Wind Speed Gust Speed Precip Events Conditions
12:20 AM 60.8 °F 59.0 °F 94% 29.84 in 8.0 mi South 15.0 mph 19.6 mph N/A   Overcast
12:51 AM 60.1 °F 59.0 °F 96% 29.84 in 6.0 mi South 11.5 mph 20.7 mph N/A   Overcast
1:42 AM 60.8 °F 59.0 °F 94% 29.82 in 6.0 mi South 11.5 mph 23.0 mph N/A Thunderstorm Overcast
1:51 AM 60.1 °F 59.0 °F 96% 29.83 in 7.0 mi Variable 6.9 mph - N/A Thunderstorm Overcast
2:10 AM 60.8 °F 59.0 °F 94% 29.85 in 1.8 mi Variable 5.8 mph - 0.20 in Rain , Thunderstorm Thunderstorms and Rain
2:13 AM 59.0 °F 59.0 °F 100% 29.83 in 1.0 mi SSE 13.8 mph 17.3 mph 0.35 in Rain , Thunderstorm Heavy Thunderstorms and Rain
2:20 AM 59.0 °F 59.0 °F 100% 29.86 in 1.5 mi Variable 4.6 mph 17.3 mph 0.36 in Rain , Thunderstorm Light Thunderstorms and Rain
2:23 AM 59.0 °F 59.0 °F 100% 29.86 in 3.0 mi Variable 3.5 mph - 0.36 in Rain , Thunderstorm Light Thunderstorms and Rain
2:36 AM 60.8 °F 59.0 °F 94% 29.86 in 10.0 mi SSE 6.9 mph - 0.36 in Thunderstorm Overcast
2:51 AM 60.1 °F 57.9 °F 93% 29.84 in 10.0 mi South 9.2 mph - 0.36 in Thunderstorm Mostly Cloudy
3:00 AM 59.0 °F 57.2 °F 94% 29.84 in 10.0 mi South 10.4 mph - N/A   Overcast
3:12 AM 59.0 °F 57.2 °F 94% 29.84 in 8.0 mi South 5.8 mph - N/A   Overcast
3:43 AM 59.0 °F 57.2 °F 94% 29.82 in 4.0 mi SSE 3.5 mph - N/A   Overcast
3:51 AM 59.0 °F 57.9 °F 96% 29.82 in 4.0 mi SW 3.5 mph - N/A   Overcast
4:19 AM 60.8 °F 57.2 °F 88% 29.84 in 9.0 mi South 6.9 mph - N/A   Overcast
4:51 AM 59.0 °F 59.0 °F 100% 29.83 in 5.0 mi South 6.9 mph - N/A   Overcast
5:51 AM 60.1 °F 59.0 °F 96% 29.84 in 5.0 mi South 5.8 mph - N/A   Overcast
6:51 AM 60.1 °F 59.0 °F 96% 29.85 in 6.0 mi South 9.2 mph 17.3 mph N/A   Overcast
7:51 AM 63.0 °F 60.1 °F 90% 29.85 in 10.0 mi South 8.1 mph - N/A   Mostly Cloudy
8:04 AM 62.6 °F 60.8 °F 94% 29.85 in 10.0 mi South 9.2 mph - N/A   Mostly Cloudy
8:22 AM 64.4 °F 60.8 °F 88% 29.85 in 10.0 mi South 8.1 mph - N/A   Scattered Clouds
8:32 AM 64.4 °F 60.8 °F 88% 29.85 in 10.0 mi South 9.2 mph - N/A   Mostly Cloudy
8:51 AM 66.0 °F 62.1 °F 87% 29.85 in 10.0 mi SSW 5.8 mph - N/A   Scattered Clouds
9:51 AM 66.9 °F 62.1 °F 84% 29.84 in 10.0 mi SW 6.9 mph - N/A   Overcast
10:51 AM 68.0 °F 62.1 °F 81% 29.83 in 10.0 mi Variable 4.6 mph - 0.00 in   Mostly Cloudy
11:51 AM 72.0 °F 63.0 °F 73% 29.82 in 10.0 mi Variable 6.9 mph 20.7 mph N/A   Scattered Clouds
12:51 PM 73.9 °F 63.0 °F 68% 29.81 in 10.0 mi South 10.4 mph - N/A   Mostly Cloudy
1:51 PM 72.0 °F 64.0 °F 76% 29.80 in 10.0 mi South 8.1 mph - 0.00 in   Overcast
2:51 PM 73.9 °F 61.0 °F 64% 29.78 in 10.0 mi South 11.5 mph 17.3 mph N/A   Clear
3:51 PM 73.9 °F 57.9 °F 57% 29.78 in 10.0 mi SSW 9.2 mph 20.7 mph N/A   Partly Cloudy
4:51 PM 73.9 °F 57.9 °F 57% 29.77 in 10.0 mi South 12.7 mph 18.4 mph N/A   Mostly Cloudy
5:51 PM 73.0 °F 63.0 °F 71% 29.76 in 10.0 mi South 16.1 mph 26.5 mph 0.00 in Rain Light Rain
6:51 PM 68.0 °F 60.1 °F 76% 29.77 in 10.0 mi SSW 12.7 mph 18.4 mph 0.00 in   Overcast
7:51 PM 66.9 °F 60.1 °F 79% 29.78 in 10.0 mi SSW 6.9 mph - 0.00 in   Overcast
8:51 PM 66.9 °F 63.0 °F 87% 29.77 in 10.0 mi South 9.2 mph - 0.00 in Rain Light Rain
9:51 PM 66.0 °F 62.1 °F 87% 29.78 in 10.0 mi South 3.5 mph - N/A   Mostly Cloudy
10:51 PM 63.0 °F 59.0 °F 87% 29.79 in 7.0 mi SSE 6.9 mph - 0.08 in Rain Light Rain
11:51 PM 61.0 °F 59.0 °F 93% 29.78 in 5.0 mi SSW 3.5 mph - 0.12 in Rain Rain